South Lake Tahoe, CA

2:46 AM PST on February 24, 2018 (GMT -0800)
Lake Tahoe

Weather History for KTVL - August, 2014

Change the Weather History Date:

Sunday, August 10, 2014

  Actual Average Record
Temperature  
Mean Temperature 65 °F 61 °F  
Max Temperature 81 °F 81 °F 89 °F (1981)
Min Temperature 49 °F 41 °F 34 °F (1932)
Degree Days  
Heating Degree Days 0 4  
Month to date heating degree days 18 40  
Since 1 June heating degree days 242 488  
Since 1 July heating degree days 32 178  
Cooling Degree Days 0 0  
Month to date cooling degree days 8 7  
Year to date cooling degree days 95 26  
Since 1 June cooling degree days 95 26  
Growing Degree Days 14 (Base 50)    
Moisture  
Dew Point 47 °F    
Average Humidity 55    
Maximum Humidity 86    
Minimum Humidity 23    
Precipitation  
Precipitation 0.07 in - 0.09 in (1983)
Month to date precipitation 0.44  
Year to date precipitation 13.34  
Sea Level Pressure  
Sea Level Pressure 30.13 in    
Wind  
Wind Speed 3 mph (SE)    
Max Wind Speed 12 mph    
Max Gust Speed 17 mph    
Visibility 10 miles    
Events Rain , Thunderstorm    
T = Trace of Precipitation, MM = Missing Value Source: NWS Daily Summary

Daily Weather History Graph

Daily Weather History Graph

Search for Another Location

Airport or City:

Trip Planner

Search our weather history database for the weather conditions in past years. The results will help you decide how hot, cold, wet, or windy it might be!

Date:

Astronomy

Aug. 10, 2014 Rise Set
Actual Time 6:09 AM PDT 8:00 PM PDT
Civil Twilight 5:40 AM PDT 8:29 PM PDT
Nautical Twilight 5:05 AM PDT 9:04 PM PDT
Astronomical Twilight 4:27 AM PDT 9:42 PM PDT
Moon 7:52 PM PDT (8/10) 6:07 AM PDT (8/10)
Length of Visible Light 14h 49m
Length of Day
13h 51m
Full, 100% of the Moon is Illuminated
Aug 10
Full
Aug 17
Last Quarter
Aug 25
New
Sep 2
First Quarter
Sep 8
Full

Hourly Weather History & Observations

Time (PDT) Temp. Dew Point Humidity Pressure Visibility Wind Dir Wind Speed Gust Speed Precip Events Conditions
12:53 AM 55.0 °F 42.1 °F 62% 30.07 in 10.0 mi Calm Calm - N/A   Partly Cloudy
2:53 AM 57.0 °F 42.1 °F 57% 30.06 in 10.0 mi SSW 6.9 mph - 0.00 in   Mostly Cloudy
3:53 AM 53.1 °F 42.1 °F 66% 30.06 in 10.0 mi South 4.6 mph - N/A   Clear
5:53 AM 48.9 °F 41.0 °F 74% 30.07 in 10.0 mi Calm Calm - N/A   Clear
7:53 AM 57.9 °F 42.1 °F 56% 30.08 in 10.0 mi Calm Calm - N/A   Clear
8:53 AM 69.1 °F 43.0 °F 39% 30.06 in 10.0 mi ENE 5.8 mph - N/A   Clear
9:53 AM 73.0 °F 42.1 °F 33% 30.06 in 10.0 mi NNE 6.9 mph - N/A   Clear
10:53 AM 77.0 °F 41.0 °F 28% 30.06 in 10.0 mi Variable 4.6 mph - N/A   Partly Cloudy
11:53 AM 75.0 °F 45.0 °F 34% 30.08 in 10.0 mi Variable 6.9 mph - N/A   Scattered Clouds
12:53 PM 79.0 °F 42.1 °F 27% 30.07 in 10.0 mi Variable 5.8 mph - N/A   Mostly Cloudy
1:53 PM 79.0 °F 37.0 °F 22% 30.06 in 10.0 mi NE 8.1 mph - N/A   Scattered Clouds
2:53 PM 75.9 °F 37.9 °F 25% 30.06 in 10.0 mi Variable 5.8 mph - 0.00 in Rain , Thunderstorm Light Rain
3:07 PM 66.0 °F 51.1 °F 59% 30.25 in 9.0 mi NNE 9.2 mph - 0.01 in Rain , Thunderstorm Light Thunderstorms and Rain
3:28 PM 64.0 °F 53.1 °F 67% 30.25 in 10.0 mi Variable 3.5 mph - 0.02 in   Overcast
3:38 PM 63.0 °F 53.1 °F 70% 30.25 in 9.0 mi Calm Calm - 0.02 in Rain , Thunderstorm Light Rain
3:53 PM 64.0 °F 52.0 °F 65% 30.10 in 10.0 mi Calm Calm - 0.02 in Thunderstorm Overcast
4:22 PM 63.0 °F 55.0 °F 75% 30.26 in 10.0 mi Calm Calm - 0.02 in Thunderstorm Thunderstorm
4:53 PM 62.1 °F 55.9 °F 80% 30.14 in 10.0 mi WSW 5.8 mph - 0.04 in Rain , Thunderstorm Light Rain
5:06 PM 63.0 °F 51.1 °F 65% 30.28 in 10.0 mi NE 5.8 mph - 0.00 in Rain , Thunderstorm Light Thunderstorms and Rain
5:53 PM 60.1 °F 52.0 °F 75% 30.17 in 10.0 mi South 5.8 mph - 0.00 in Rain , Thunderstorm Light Thunderstorms and Rain
6:04 PM 59.0 °F 52.0 °F 78% 30.28 in 10.0 mi Calm Calm - 0.01 in Rain Light Rain
6:53 PM 60.1 °F 50.0 °F 69% 30.14 in 10.0 mi Calm Calm - 0.01 in   Clear
7:53 PM 55.9 °F 51.1 °F 84% 30.14 in 10.0 mi Calm Calm - N/A   Clear
8:53 PM 55.9 °F 50.0 °F 80% 30.12 in 10.0 mi Calm Calm - N/A   Partly Cloudy
9:53 PM 54.0 °F 48.9 °F 83% 30.12 in 10.0 mi South 4.6 mph - N/A   Clear
10:53 PM 53.1 °F 48.0 °F 83% 30.11 in 10.0 mi Calm Calm - N/A   Clear
11:53 PM 50.0 °F 46.0 °F 86% 30.12 in 10.0 mi SSW 3.5 mph - N/A   Clear